Regional Weather Roundup
Issued by NWS Bismarck, ND

Home | Current Version | Previous Version | Text Only | Print | Product List | Glossary On
Versions: 1 2 3 4 5 6 7 8 9 10 11 12 13 14 15 16 17 18 19 20 21 22 23 24 25 26 27 28 29 30 31 32 33 34 35 36 37 38 39 40 41 42 43 44 45 46 47 48 49 50
000
ASUS43 KBIS 281502
RWRBIS

NWR BROADCAST TEXT
NATIONAL WEATHER SERVICE BISMARCK ND
1000 AM CDT TUE JUL 28 2015

NOTE: "FAIR" INDICATES FEW OR NO CLOUDS BELOW 12,000 FEET WITH NO
SIGNIFICANT WEATHER AND/OR OBSTRUCTIONS TO VISIBILITY.


CITY           SKY/WX    TMP DP  RH WIND       PRES   REMARKS
WILLISTON      CLOUDY    57  55  93 SW16G29   29.53F
MINOT          PTSUNNY   67  52  58 SW18G32   29.56F
MINOT AFB      PTSUNNY   66  55  67 SW20G35   29.54F
BISMARCK       MOSUNNY   67  50  54 W29G35    29.74S
DICKINSON      CLOUDY    60  47  61 W30G47    29.71F
GARRISON         N/A     64  51  62 W20G39    29.63S
HETTINGER ARPT MOSUNNY   62  44  51 W35G49    29.82S
JAMESTOWN      MOSUNNY   68  56  65 W21G28    29.71R
HAZEN          PTSUNNY   64  48  55 W30G40    29.67F
STANLEY        CLOUDY    59  55  88 SW23G31   29.55F
$$

CITY           SKY/WX    TMP DP  RH WIND       PRES   REMARKS
GRAND FORKS    PTSUNNY   77  67  71 S21G32    29.59R
GRAND FORKS AF NOT AVBL
DEVILS LAKE    CLOUDY    70  55  60 SW22      29.60S
FARGO          MOSUNNY   76  67  73 SW25G35   29.67R
CAVALIER       PTSUNNY   75  66  73 SW14G20   29.54S
GRAFTON        PTSUNNY   77  70  78 S14G22    29.57R
GWINNER        PTSUNNY   72  64  78 W22       29.75R
LANGDON        PTSUNNY   70  61  73 W22       29.58S
$$

CITY           SKY/WX    TMP DP  RH WIND       PRES   REMARKS
ABERDEEN       MOSUNNY   69  56  62 W17G26    29.81S
MOBRIDGE       SUNNY     68  52  56 W21G31    29.81R
BUFFALO          N/A     62  43  49 W40G52    29.83R
RAPID CITY     SUNNY     66  43  43 W20       30.00R
GLASGOW        LGT RAIN  57  53  86 W26G39    29.70R
SIDNEY         CLOUDY    57  54  88 SW22G29   29.60S
WOLF POINT     LGT RAIN  60  55  83 W22G36    29.62R
GLENDIVE       CLOUDY    57  52  82 W37G47    29.72R
MILES CITY     CLOUDY    59  47  64 W35G45    29.88R
BAKER          CLOUDY    59  46  62 W38G49    29.83R
$$

CITY           SKY/WX    TMP DP  RH WIND       PRES   REMARKS
BILLINGS       PTSUNNY   59  38  45 W22G37    30.09R
GREAT FALLS    PTSUNNY   58  45  62 SW15      30.09R
ESTEVAN        DRIZZLE   59  57  94 S21G31    29.43F
$$



USA.gov is the U.S. government's official web portal to all federal, state and local government web resources and services.